Simultaneous Nadir Overpasses (SNOs) Predictions

Prediction of SNOs between LANDSAT-8 and METOP-B Satellite Orbit:

Table of predicted SNOs for the next 14.0 days since TLE Epoch: 4/4/2015
Index Date (LANDSAT-8) Time (LANDSAT-8) Lat,Lon (LANDSAT-8) SZA (LANDSAT-8 ) Date (METOP-B) Time (METOP-B) Lat,Lon (METOP-B) SZA (METOP-B ) Distance(km) Time Diff (sec)
1 04/06/2015 20:11:04 81.02, -85.00 76.28 04/06/2015 20:10:17 81.01, -85.19 76.24 3.31 47
2 04/06/2015 21:00:30 -81.04, 82.99 103.68 04/06/2015 21:00:56 -81.05, 82.97 103.67 0.62 26
3 04/09/2015 15:45:22 81.03, -18.44 75.27 04/09/2015 15:44:38 81.03, -18.42 75.26 0.39 44
4 04/09/2015 16:34:48 -81.06, 149.59 104.69 04/09/2015 16:35:18 -81.05, 149.41 104.70 3.27 30
5 04/12/2015 11:19:45 81.02, 47.78 74.23 04/12/2015 11:19:01 81.03, 47.91 74.23 2.53 44
6 04/12/2015 12:09:11 -81.05,-144.16 105.72 04/12/2015 12:09:41 -81.05,-144.23 105.72 1.17 30
7 04/15/2015 06:54:10 81.03, 114.36 73.26 04/15/2015 06:53:23 81.04, 114.54 73.26 3.04 47
8 04/15/2015 07:43:36 -81.06, -77.55 106.69 04/15/2015 07:44:03 -81.06, -77.58 106.68 0.72 27
9 04/18/2015 02:28:38 81.02,-179.39 72.27 04/18/2015 02:27:45 81.03,-179.28 72.26 2.05 53




NCC Satellite Simultaneous Nadir Overpasses (SNOs) Prediction Service
